Showing default

GALILEO 22 (2C8), 43058

Orbit data source: Space-Track

GALILEO 22 (2C8), 43058 is a payload satellite owned by GNSS Agency (ESA) that was launched on Tue, 12 Dec 2017 UTC via an ARIANE 5ES launch vehicle from the French Guiana (FRGUI). Payload-class satellites include a variety of spacecraft equipped with specific instruments for various scientific and technological missions. These include communications satellites like Starlink; space stations such as the ISS; scientific satellites like the Hubble; Earth observation satellites from companies like Planet Labs, Umbra, and HawkEye 360; GPS; miniature CubeSats for education and research; and military/defense satellites.

Loading next visibility...
Identifier
43058, 2017-079D
Orbit
Active
Country
Flag of ESAESA
Related business
Manufacturer
OHB
Mission
Operational Civil Navigation
Bus & Motor
GALILEOSAT, AOCS
Mass
715 kg wet, 700 kg dry
Launch date (UTC)
2017-12-12 (8 years ago)
Launch vehicle
ARIANE 5ES
Launch site
French Guiana (FRGUI)
Object type
Payload
Rocket body
Debris
Shape & HBR
Box + 2 Pan, 7.4 m
Radar Cross Section
9.223 m², Large (>1 m²)

Expand to show TLE details & history
Last TLE update: 12 hours ago

TLE from 12 hours ago
0 GALILEO 22 (2C8)
1 43058U 17079D   25260.98667508 -.00000002  00000-0  00000-0 0  9991
2 43058  55.1623 228.9909 0004978 277.5677  82.3363  1.70473930 48373
Epoch: 2025-09-17T23:40Z
TLE epoch observation values (Epoch: 2025-09-17T23:40:48.726Z)
Latitude
0.00001°
Longitude
-123.37503°
Altitude
23,220.51 km
Speed
3.67 km/s
True Right ascension
15h 15m 55s
True Declination
0° 00' 00"
Sunlit
Object was in daylight at epoch
Visualization orbit readout
Latitude
Unknown
Longitude
Unknown
Altitude
Unknown
Speed
Unknown
Apparent Right ascension
Unknown
Apparent Declination
Unknown
Sunlit
N/A
Visualization observer readout
Local Sidereal Time
04:50:11
Azimuth
Unknown
Elevation
Unknown
Doppler factor
Unknown
Orbital elements
Apogee altitude
23,236.929 km
Perigee altitude
23,207.459 km
Semi-major axis
29,600.331 km
Eccentricity
0.0005
Inclination
55.1623°
RAAN
228.9909°
Arg. of periapsis
277.5677°
True anomaly
82.39284°
Mean anomaly
82.3363°
Eccentric anomaly
82.36457°
Mean motion
0.42619 °/min
Orbital period
844.7 mins
BSTAR
0
Loading maneuver chart data...
Computing Atmospheric mass density...
Loading historical data...
Loading historical data...
Loading historical data...
Loading historical data...
Loading historical data...
Loading historical data...
Loading historical data...
Other satellites on launch #79 in the year 2017 (2017-12-12 UTC)

Documentation

Showing up to 5 results
|